QPF
0.01 0.01 0.00 0.00 0.00 0.01 0.02 0.03 0.02 0.01 0.09 0.09 0.05 0.08 0.06 0.03 0.01 0.00 0.00 0.00 0.00 0.00 0.00 0.00 0.00 0.00 0.00 0.00 0.00 0.00 0.00 0.00 0.00 0.00 0.00 0.00 0.00 0.00 0.00 0.00 0.00 0.00 0.00 0.00
0.00 0.00 0.00 0.00 0.00 0.01 0.04 0.03 0.01 0.03 0.15 0.10 0.02 0.01 0.03 0.05 0.02 0.00 0.00 0.00 0.00 0.00 0.00 0.00 0.00 0.00 0.00 0.00 0.00 0.00 0.00 0.01 0.01 0.00 0.00 0.00 0.00 0.00 0.00 0.00 0.00 0.00 0.00 0.00
0.00 0.00 0.00 0.00 0.01 0.01 0.07 0.06 0.03 0.02 0.08 0.05 0.04 0.05 0.03 0.06 0.04 0.01 0.00 0.01 0.00 0.00 0.00 0.00 0.00 0.00 0.00 0.00 0.00 0.00 0.00 0.00 0.00 0.00 0.01 0.00 0.00 0.00 0.00 0.00 0.00 0.00 0.00 0.00
0.01 0.02 0.02 0.01 0.01 0.03 0.08 0.05 0.03 0.01 0.02 0.01 0.01 0.03 0.07 0.06 0.07 0.03 0.01 0.02 0.01 0.00 0.01 0.01 0.01 0.00 0.00 0.00 0.00 0.00 0.00 0.00 0.00 0.00 0.00 0.00 0.00 0.00 0.00 0.00 0.00 0.00 0.00 0.00
0.04 0.05 0.06 0.06 0.04 0.07 0.11 0.06 0.04 0.01 0.00 0.01 0.03 0.03 0.02 0.03 0.05 0.06 0.03 0.01 0.01 0.00 0.00 0.01 0.02 0.01 0.01 0.00 0.00 0.00 0.00 0.00 0.00 0.00 0.00 0.00 0.00 0.00 0.00 0.00 0.00 0.00 0.00 0.00
0.04 0.04 0.06 0.08 0.08 0.14 0.26 0.15 0.04 0.08 0.05 0.01 0.04 0.03 0.02 0.02 0.03 0.02 0.01 0.00 0.02 0.01 0.01 0.00 0.00 0.00 0.00 0.00 0.00 0.00 0.00 0.00 0.01 0.00 0.01 0.01 0.00 0.00 0.00 0.00 0.00 0.00 0.00 0.00
0.02 0.01 0.01 0.04 0.12 0.19 0.23 0.15 0.04 0.04 0.04 0.05 0.03 0.02 0.03 0.02 0.02 0.03 0.02 0.00 0.02 0.01 0.00 0.00 0.00 0.00 0.00 0.00 0.00 0.00 0.00 0.00 0.01 0.01 0.00 0.00 0.00 0.00 0.01 0.00 0.00 0.00 0.00 0.00
0.01 0.01 0.01 0.01 0.02 0.15 0.28 0.16 0.04 0.03 0.03 0.01 0.03 0.04 0.03 0.04 0.04 0.02 0.03 0.01 0.02 0.02 0.01 0.02 0.01 0.01 0.00 0.00 0.00 0.00 0.00 0.00 0.02 0.01 0.00 0.00 0.00 0.01 0.05 0.05 0.02 0.00 0.00 0.00
0.01 0.01 0.01 0.01 0.02 0.02 0.16 0.31 0.11 0.04 0.04 0.01 0.01 0.03 0.03 0.03 0.04 0.04 0.03 0.04 0.03 0.01 0.04 0.04 0.03 0.03 0.01 0.01 0.01 0.00 0.00 0.00 0.01 0.01 0.02 0.01 0.01 0.00 0.01 0.01 0.05 0.04 0.01 0.00
0.01 0.01 0.01 0.01 0.02 0.03 0.03 0.11 0.13 0.09 0.09 0.01 0.00 0.02 0.03 0.04 0.04 0.06 0.04 0.06 0.05 0.03 0.06 0.05 0.04 0.02 0.00 0.00 0.02 0.03 0.00 0.01 0.01 0.00 0.03 0.02 0.01 0.00 0.01 0.12 0.16 0.16 0.01 0.01
0.01 0.01 0.02 0.01 0.02 0.03 0.04 0.01 0.05 0.11 0.06 0.01 0.01 0.00 0.00 0.03 0.06 0.08 0.06 0.07 0.08 0.09 0.08 0.04 0.03 0.01 0.00 0.00 0.00 0.03 0.03 0.01 0.01 0.01 0.04 0.02 0.00 0.01 0.04 0.14 0.19 0.37 0.24 0.17
0.00 0.01 0.02 0.05 0.03 0.03 0.04 0.02 0.03 0.09 0.07 0.02 0.01 0.00 0.00 0.00 0.00 0.04 0.08 0.02 0.02 0.01 0.04 0.04 0.03 0.02 0.01 0.00 0.00 0.00 0.01 0.02 0.08 0.03 0.04 0.05 0.00 0.02 0.00 0.00 0.00 0.01 0.02 0.05
0.00 0.00 0.01 0.02 0.05 0.04 0.03 0.03 0.02 0.09 0.11 0.02 0.01 0.00 0.00 0.00 0.00 0.01 0.03 0.02 0.03 0.02 0.03 0.06 0.05 0.02 0.01 0.01 0.00 0.00 0.00 0.01 0.09 0.05 0.06 0.04 0.00 0.00 0.00 0.00 0.00 0.00 0.00 0.00
0.01 0.01 0.01 0.01 0.03 0.06 0.03 0.03 0.01 0.02 0.03 0.03 0.02 0.00 0.00 0.00 0.00 0.01 0.01 0.01 0.03 0.05 0.04 0.05 0.05 0.02 0.00 0.00 0.00 0.00 0.00 0.00 0.00 0.00 0.01 0.01 0.01 0.00 0.00 0.00 0.00 0.00 0.00 0.00
0.01 0.02 0.02 0.02 0.05 0.11 0.04 0.03 0.01 0.00 0.03 0.05 0.01 0.00 0.00 0.00 0.02 0.02 0.03 0.03 0.04 0.06 0.05 0.03 0.02 0.02 0.01 0.01 0.01 0.01 0.00 0.00 0.01 0.02 0.00 0.00 0.00 0.00 0.00 0.00 0.00 0.00 0.00 0.00
0.01 0.03 0.03 0.05 0.10 0.22 0.29 0.31 0.12 0.02 0.04 0.04 0.02 0.00 0.00 0.00 0.01 0.03 0.03 0.02 0.06 0.09 0.06 0.03 0.04 0.02 0.04 0.04 0.04 0.01 0.00 0.00 0.00 0.00 0.00 0.00 0.00 0.00 0.00 0.00 0.00 0.00 0.00 0.00
0.00 0.02 0.05 0.08 0.16 0.34 0.22 0.09 0.04 0.01 0.04 0.08 0.05 0.03 0.00 0.00 0.01 0.03 0.06 0.04 0.04 0.06 0.10 0.05 0.04 0.05 0.04 0.04 0.04 0.01 0.00 0.00 0.00 0.00 0.00 0.00 0.00 0.00 0.00 0.00 0.00 0.00 0.00 0.00
0.02 0.06 0.11 0.18 0.25 0.15 0.06 0.00 0.00 0.00 0.02 0.04 0.03 0.04 0.04 0.03 0.03 0.03 0.05 0.04 0.04 0.06 0.06 0.05 0.05 0.07 0.07 0.06 0.01 0.00 0.00 0.00 0.00 0.00 0.00 0.00 0.00 0.00 0.00 0.00 0.00 0.00 0.00 0.00
0.17 0.23 0.29 0.32 0.26 0.19 0.06 0.00 0.01 0.02 0.03 0.03 0.01 0.02 0.04 0.04 0.06 0.05 0.05 0.05 0.07 0.04 0.02 0.04 0.05 0.06 0.05 0.02 0.00 0.00 0.00 0.00 0.00 0.00 0.00 0.00 0.00 0.00 0.00 0.00 0.00 0.00 0.00 0.00
0.08 0.11 0.16 0.29 0.19 0.03 0.04 0.08 0.09 0.06 0.04 0.04 0.02 0.03 0.05 0.05 0.04 0.02 0.02 0.02 0.03 0.03 0.02 0.02 0.02 0.05 0.03 0.00 0.00 0.00 0.00 0.00 0.00 0.00 0.00 0.00 0.00 0.00 0.00 0.00 0.00 0.00 0.00 0.00
0.02 0.02 0.12 0.19 0.09 0.06 0.05 0.05 0.03 0.02 0.02 0.01 0.01 0.02 0.03 0.09 0.04 0.02 0.05 0.06 0.02 0.05 0.03 0.03 0.03 0.02 0.01 0.00 0.00 0.00 0.00 0.00 0.00 0.00 0.00 0.00 0.00 0.00 0.00 0.00 0.00 0.00 0.00 0.00
0.00 0.01 0.04 0.05 0.02 0.01 0.01 0.02 0.02 0.01 0.04 0.01 0.01 0.00 0.03 0.12 0.10 0.03 0.05 0.19 0.06 0.06 0.05 0.02 0.01 0.01 0.00 0.00 0.00 0.00 0.00 0.00 0.00 0.00 0.00 0.00 0.00 0.00 0.00 0.00 0.00 0.00 0.00 0.01
0.00 0.00 0.00 0.00 0.00 0.00 0.01 0.02 0.02 0.02 0.01 0.02 0.02 0.09 0.16 0.13 0.16 0.11 0.05 0.09 0.08 0.01 0.02 0.02 0.01 0.00 0.00 0.00 0.00 0.00 0.00 0.00 0.00 0.00 0.00 0.00 0.01 0.01 0.01 0.01 0.01 0.01 0.01 0.02
0.00 0.00 0.00 0.00 0.00 0.00 0.00 0.01 0.01 0.03 0.05 0.06 0.12 0.19 0.16 0.10 0.10 0.09 0.03 0.02 0.02 0.02 0.01 0.01 0.01 0.01 0.00 0.00 0.00 0.00 0.00 0.00 0.00 0.01 0.01 0.01 0.01 0.01 0.01 0.01 0.02 0.01 0.02 0.04
0.00 0.00 0.00 0.00 0.01 0.01 0.02 0.02 0.04 0.06 0.06 0.07 0.07 0.05 0.02 0.01 0.00 0.00 0.01 0.01 0.01 0.01 0.01 0.02 0.01 0.00 0.00 0.00 0.00 0.00 0.01 0.01 0.01 0.01 0.01 0.01 0.02 0.02 0.02 0.03 0.03 0.03 0.04 0.05
0.00 0.00 0.01 0.01 0.02 0.02 0.02 0.03 0.04 0.02 0.01 0.00 0.00 0.00 0.00 0.00 0.00 0.00 0.00 0.00 0.01 0.01 0.01 0.01 0.01 0.00 0.00 0.01 0.01 0.01 0.01 0.01 0.01 0.01 0.01 0.01 0.02 0.02 0.03 0.03 0.04 0.04 0.05 0.05
0.00 0.01 0.01 0.01 0.01 0.02 0.02 0.01 0.01 0.00 0.00 0.00 0.00 0.00 0.00 0.00 0.00 0.00 0.00 0.01 0.02 0.01 0.01 0.01 0.01 0.01 0.01 0.01 0.01 0.01 0.01 0.01 0.01 0.01 0.02 0.02 0.03 0.03 0.03 0.03 0.05 0.04 0.05 0.04
MSLP
1015.03 1015.15 1015.36 1015.62 1015.97 1016.43 1016.82 1016.05 1014.55 1012.20 1013.27 1014.55 1014.15 1013.34 1011.88 1011.73 1009.75 1008.60 1008.29 1007.95 1006.90 1006.23 1005.98 1005.41 1004.97 1004.37 1004.33 1004.86 1004.57 1003.84 1003.78 1002.75 1001.22 1000.08 999.17 998.95 998.63 998.66 998.95 998.68 998.27 997.10 996.25 994.60
1014.24 1014.39 1014.65 1014.97 1015.36 1015.87 1015.50 1015.37 1013.90 1012.77 1013.46 1013.00 1012.75 1011.89 1012.11 1011.52 1010.45 1009.33 1008.77 1008.07 1007.76 1007.46 1006.87 1006.35 1005.67 1005.40 1005.36 1005.75 1005.23 1005.35 1005.13 1003.61 1002.11 1000.70 1000.21 999.59 999.14 998.91 998.65 998.69 998.62 997.34 996.24 994.78
1013.32 1013.53 1013.79 1014.19 1014.62 1015.09 1015.69 1014.89 1013.53 1012.34 1012.93 1012.20 1011.91 1011.00 1010.47 1010.52 1010.58 1010.21 1008.83 1008.28 1007.95 1007.75 1007.36 1006.98 1006.54 1005.98 1005.92 1006.23 1006.16 1006.53 1006.37 1004.79 1003.52 1001.94 1001.70 1000.65 999.49 999.08 999.12 998.86 998.12 997.53 996.61 995.41
1012.27 1012.52 1012.84 1013.29 1013.78 1014.23 1015.33 1014.46 1012.90 1010.96 1011.29 1011.31 1010.85 1010.67 1010.37 1009.77 1009.44 1009.91 1008.88 1008.98 1008.46 1007.70 1007.47 1007.18 1006.87 1006.75 1006.43 1006.34 1006.18 1006.34 1006.15 1005.21 1004.38 1003.34 1002.07 1001.59 1000.67 1000.09 999.74 999.12 998.63 997.64 996.71 995.31
1011.00 1011.24 1011.56 1012.04 1012.69 1013.37 1014.32 1013.55 1012.78 1011.38 1010.37 1009.73 1009.98 1009.70 1009.50 1009.17 1009.56 1009.47 1008.97 1008.63 1008.02 1007.83 1007.50 1007.31 1007.36 1007.75 1007.39 1007.18 1006.80 1006.51 1006.52 1005.65 1005.19 1003.94 1002.92 1001.94 1000.76 1000.16 999.52 998.78 998.47 997.66 996.94 995.30
1009.70 1009.96 1010.22 1010.62 1011.28 1012.44 1012.44 1012.66 1012.15 1011.69 1010.07 1009.61 1009.10 1008.51 1008.61 1008.22 1008.35 1008.08 1008.13 1008.10 1007.86 1007.77 1008.02 1007.89 1007.89 1007.77 1007.86 1007.89 1007.66 1007.21 1007.07 1006.65 1006.20 1004.80 1003.32 1001.84 1000.41 999.66 999.19 998.99 998.43 997.72 996.18 995.42
1008.56 1008.85 1009.11 1009.46 1010.01 1010.77 1011.65 1011.77 1011.92 1011.59 1009.62 1008.99 1008.25 1007.80 1007.60 1007.58 1007.43 1007.39 1007.66 1007.35 1007.64 1008.25 1008.83 1008.90 1008.40 1008.15 1007.89 1007.68 1007.34 1007.48 1007.38 1006.97 1006.94 1005.50 1004.42 1002.28 1000.16 999.98 1000.43 1000.10 999.72 998.47 996.80 994.90
1007.51 1007.87 1008.21 1008.58 1009.04 1009.62 1010.37 1010.79 1010.89 1010.38 1009.14 1008.37 1007.49 1007.31 1006.98 1006.85 1007.12 1007.40 1007.54 1007.25 1008.33 1009.67 1009.63 1009.57 1008.13 1007.17 1006.87 1005.88 1005.80 1006.10 1006.94 1006.92 1006.80 1005.74 1004.04 1002.17 1000.74 999.84 1000.32 1000.25 999.72 998.83 996.09 994.12
1006.63 1006.96 1007.34 1007.78 1008.28 1008.85 1009.38 1009.73 1010.09 1009.73 1008.87 1006.71 1006.70 1006.36 1006.34 1006.57 1006.92 1007.12 1007.08 1007.94 1009.32 1010.01 1010.31 1009.88 1007.79 1005.68 1004.54 1003.45 1003.08 1004.12 1005.33 1006.19 1006.43 1005.47 1004.16 1001.78 1000.50 1000.13 1000.92 1000.86 1000.25 1000.27 998.93 996.25
1005.54 1005.94 1006.37 1006.81 1007.34 1008.01 1008.66 1009.20 1009.71 1009.51 1008.45 1006.67 1006.13 1005.67 1005.87 1006.09 1006.32 1006.50 1007.77 1009.17 1009.92 1010.14 1010.17 1009.28 1007.35 1005.26 1003.93 1003.20 1002.54 1003.23 1004.25 1005.32 1005.62 1005.26 1004.01 1002.56 1001.05 1000.44 1000.90 1001.41 1002.63 1001.68 1000.64 998.86
1004.31 1004.70 1005.22 1005.73 1006.37 1007.05 1007.93 1008.18 1009.00 1009.40 1008.44 1006.58 1005.63 1005.11 1005.27 1005.29 1005.74 1006.72 1007.81 1009.19 1009.77 1010.23 1009.57 1008.23 1006.43 1004.83 1003.70 1003.17 1002.47 1003.17 1003.76 1004.71 1004.93 1004.88 1003.75 1002.81 1001.50 1000.75 1001.74 1003.04 1002.85 1002.26 1001.48 1000.80
1002.87 1003.35 1003.93 1004.56 1005.32 1006.08 1007.05 1007.67 1008.23 1009.28 1009.16 1007.83 1006.48 1005.39 1005.09 1004.72 1005.14 1006.44 1007.53 1007.32 1008.32 1008.30 1008.07 1006.75 1005.77 1004.67 1003.88 1003.13 1002.48 1001.99 1003.37 1003.89 1003.86 1003.61 1003.32 1003.64 1002.45 1002.74 1003.23 1003.33 1003.01 1002.43 1001.72 1000.54
1001.29 1001.88 1002.60 1003.37 1004.23 1005.10 1006.13 1006.86 1007.58 1008.83 1008.92 1007.86 1007.10 1005.64 1005.44 1005.39 1005.31 1005.45 1006.32 1007.01 1007.31 1007.28 1006.64 1006.78 1005.81 1004.72 1003.75 1003.41 1002.61 1002.92 1002.00 1003.14 1004.34 1004.61 1003.89 1003.99 1003.52 1003.88 1003.79 1003.74 1003.59 1002.87 1002.20 1000.22
999.79 1000.45 1001.24 1002.10 1003.04 1003.96 1005.25 1005.96 1006.78 1007.54 1007.67 1006.88 1005.13 1004.53 1004.86 1005.01 1005.11 1005.28 1005.86 1006.27 1006.90 1007.34 1007.03 1006.84 1005.82 1004.92 1003.82 1003.37 1003.16 1002.97 1002.60 1003.22 1002.66 1002.79 1004.11 1003.89 1004.79 1004.52 1005.06 1004.62 1003.97 1003.69 1002.99 1001.66
998.28 999.06 1000.00 1001.05 1002.08 1003.13 1004.62 1005.65 1006.11 1005.95 1005.91 1005.75 1004.66 1004.49 1004.23 1004.58 1004.72 1005.03 1005.71 1006.71 1007.32 1007.29 1007.25 1006.79 1005.92 1004.87 1004.52 1004.12 1003.95 1003.63 1004.11 1004.60 1003.96 1004.62 1005.37 1005.33 1004.74 1005.13 1005.83 1005.48 1005.10 1004.99 1004.40 1003.53
996.83 997.80 998.89 1000.11 1001.37 1002.86 1004.08 1005.51 1006.23 1005.35 1005.60 1005.69 1004.33 1003.48 1003.63 1004.15 1004.55 1004.96 1005.48 1006.78 1007.19 1007.43 1007.29 1006.72 1005.66 1005.08 1004.93 1004.91 1005.12 1006.87 1006.93 1007.02 1006.97 1007.03 1007.02 1006.54 1006.56 1006.20 1007.03 1006.53 1005.89 1005.64 1005.39 1005.31
995.83 996.89 998.03 999.29 1000.81 1002.09 1003.33 1003.34 1003.46 1004.79 1005.57 1005.69 1004.53 1003.63 1003.48 1004.10 1004.54 1005.00 1005.57 1006.36 1007.10 1007.05 1007.66 1006.97 1006.03 1005.48 1005.60 1005.87 1006.80 1008.31 1008.84 1008.78 1008.57 1008.70 1007.86 1006.76 1007.67 1008.00 1008.09 1007.69 1006.92 1006.36 1006.40 1006.58
995.65 996.76 998.14 999.42 1001.01 1002.76 1003.35 1002.83 1003.10 1004.50 1005.49 1005.60 1004.29 1003.38 1003.60 1004.05 1004.44 1004.85 1005.61 1006.38 1007.08 1007.39 1007.42 1006.48 1005.90 1006.02 1006.46 1007.84 1009.26 1009.91 1010.45 1010.21 1009.92 1009.89 1009.60 1009.55 1009.46 1009.18 1009.02 1009.06 1008.69 1007.64 1007.81 1008.25
996.59 997.63 998.80 1000.66 1002.11 1002.66 1003.11 1003.65 1004.20 1004.56 1004.83 1004.14 1004.18 1003.45 1003.59 1004.08 1004.76 1005.17 1005.82 1006.10 1006.79 1007.29 1007.00 1006.30 1006.69 1007.40 1008.80 1010.83 1011.42 1011.82 1012.14 1012.09 1011.88 1011.40 1010.65 1010.39 1010.31 1010.38 1010.43 1010.33 1010.10 1009.80 1009.90 1010.39
998.45 999.25 1000.64 1001.90 1002.12 1002.74 1003.77 1005.05 1005.28 1005.18 1004.34 1003.83 1003.57 1003.04 1004.26 1005.10 1005.37 1005.55 1006.17 1006.46 1006.69 1006.76 1006.70 1006.82 1007.37 1009.55 1011.61 1012.30 1012.80 1013.25 1013.46 1013.37 1013.05 1012.42 1011.66 1011.50 1011.29 1011.30 1011.49 1011.84 1011.96 1011.99 1012.15 1012.36
998.96 1000.18 1001.35 1002.54 1002.66 1002.99 1003.85 1004.56 1004.61 1004.54 1004.52 1004.22 1003.58 1003.72 1004.56 1005.78 1005.15 1005.44 1005.87 1006.22 1006.38 1006.21 1006.75 1006.81 1008.12 1010.46 1012.28 1012.98 1013.46 1013.97 1014.29 1014.36 1014.27 1014.20 1013.78 1013.41 1013.06 1012.78 1012.77 1013.19 1013.58 1013.87 1014.11 1014.37
999.80 1001.01 1002.75 1003.20 1003.01 1003.05 1003.54 1003.93 1004.39 1003.85 1004.02 1004.46 1004.41 1004.89 1004.80 1005.56 1005.52 1005.27 1006.39 1006.22 1006.28 1006.30 1007.34 1007.86 1009.49 1012.34 1013.28 1013.85 1014.31 1014.55 1014.87 1015.05 1015.01 1015.07 1014.98 1014.89 1014.63 1014.39 1014.24 1014.51 1014.99 1015.44 1015.93 1016.23
1000.33 1001.28 1002.94 1003.23 1004.09 1003.99 1004.07 1004.34 1004.53 1004.65 1005.23 1005.45 1005.40 1005.52 1005.41 1005.68 1005.76 1005.66 1005.84 1006.12 1006.60 1007.07 1007.90 1009.66 1012.04 1013.66 1014.64 1015.18 1015.49 1015.59 1015.93 1016.09 1016.05 1016.10 1016.15 1016.26 1016.32 1016.25 1016.27 1016.51 1016.83 1017.03 1017.31 1017.71
1001.95 1003.21 1004.75 1005.34 1005.58 1005.99 1006.27 1006.17 1006.12 1006.62 1006.49 1006.25 1005.88 1005.46 1005.52 1005.67 1005.87 1006.14 1006.54 1007.59 1007.54 1008.16 1009.35 1011.66 1013.86 1015.23 1015.93 1016.29 1016.49 1016.59 1016.91 1017.22 1017.32 1017.48 1017.55 1017.65 1017.71 1017.82 1017.95 1018.04 1018.29 1018.44 1018.70 1019.15
1004.57 1005.38 1006.40 1007.12 1007.82 1007.89 1008.04 1007.88 1007.51 1007.73 1007.39 1006.31 1005.45 1005.61 1005.50 1005.81 1006.33 1007.03 1007.64 1008.31 1009.21 1010.39 1011.90 1013.80 1015.44 1016.42 1016.76 1017.08 1017.31 1017.54 1017.84 1018.05 1018.27 1018.48 1018.64 1018.73 1018.81 1018.94 1019.15 1019.40 1019.54 1019.72 1019.98 1020.26
1006.93 1008.15 1008.25 1008.51 1008.23 1008.62 1008.71 1008.68 1008.42 1008.28 1007.45 1006.24 1005.20 1005.51 1006.45 1007.56 1007.93 1008.59 1009.59 1009.95 1011.42 1013.26 1014.64 1015.84 1016.60 1017.36 1017.81 1018.04 1018.31 1018.51 1018.80 1019.04 1019.15 1019.33 1019.53 1019.76 1019.94 1020.10 1020.39 1020.70 1020.94 1021.19 1021.44 1021.65
1008.40 1009.67 1010.30 1009.89 1009.99 1010.17 1010.16 1009.88 1009.38 1008.67 1007.60 1006.84 1006.46 1007.16 1008.49 1008.83 1009.64 1011.24 1012.57 1013.42 1014.75 1015.73 1016.69 1017.44 1017.98 1018.31 1018.74 1019.04 1019.31 1019.65 1019.78 1019.80 1020.00 1020.24 1020.38 1020.61 1020.85 1021.06 1021.23 1021.47 1022.05 1022.32 1022.68 1022.90
Thickness
5362 5365 5367 5367 5368 5367 5366 5372 5377 5405 5393 5377 5383 5387 5424 5421 5449 5466 5473 5479 5494 5504 5509 5517 5525 5532 5540 5542 5548 5550 5557 5564 5569 5585 5607 5614 5615 5612 5612 5602 5608 5631 5630 5639
5360 5363 5364 5365 5365 5363 5369 5367 5383 5393 5386 5388 5395 5414 5405 5417 5433 5451 5460 5471 5480 5489 5495 5501 5515 5521 5528 5530 5535 5531 5540 5551 5557 5575 5587 5599 5597 5607 5615 5615 5613 5610 5614 5635
5360 5361 5362 5363 5363 5361 5358 5364 5374 5393 5382 5396 5396 5415 5426 5424 5428 5434 5456 5464 5474 5479 5485 5496 5500 5511 5518 5520 5522 5519 5524 5539 5546 5554 5553 5575 5583 5595 5599 5602 5601 5605 5612 5628
5360 5361 5363 5363 5362 5360 5353 5360 5376 5405 5384 5392 5405 5412 5415 5425 5437 5432 5451 5448 5459 5472 5476 5485 5492 5501 5506 5513 5518 5519 5522 5525 5539 5550 5564 5565 5571 5576 5583 5588 5596 5595 5612 5623
5362 5364 5366 5366 5364 5359 5352 5358 5368 5392 5406 5413 5405 5411 5417 5426 5420 5426 5439 5449 5461 5467 5473 5481 5478 5479 5488 5493 5507 5511 5512 5518 5525 5533 5551 5557 5560 5572 5583 5593 5594 5600 5604 5615
5367 5368 5371 5371 5369 5359 5360 5364 5376 5379 5400 5401 5407 5418 5420 5432 5438 5445 5448 5451 5457 5462 5465 5472 5476 5480 5484 5486 5488 5495 5498 5502 5503 5514 5539 5549 5551 5570 5581 5584 5591 5597 5599 5615
5369 5371 5372 5372 5371 5366 5360 5363 5369 5370 5393 5399 5409 5422 5428 5431 5440 5445 5448 5457 5456 5456 5455 5458 5466 5471 5475 5480 5487 5489 5489 5496 5494 5505 5517 5520 5561 5569 5562 5562 5570 5587 5600 5621
5371 5370 5370 5370 5369 5367 5363 5364 5366 5374 5389 5405 5412 5417 5427 5435 5438 5439 5444 5456 5449 5438 5441 5437 5459 5476 5479 5492 5497 5495 5489 5491 5482 5498 5518 5539 5551 5565 5557 5559 5563 5580 5605 5630
5368 5367 5366 5365 5364 5362 5362 5363 5367 5375 5385 5413 5418 5421 5428 5426 5430 5438 5447 5442 5431 5432 5423 5430 5459 5488 5504 5513 5517 5512 5502 5495 5492 5502 5510 5530 5549 5559 5555 5557 5558 5559 5571 5602
5368 5367 5366 5366 5365 5362 5361 5360 5362 5369 5382 5411 5416 5419 5421 5431 5435 5442 5433 5417 5416 5426 5424 5434 5461 5487 5505 5505 5513 5506 5502 5494 5489 5497 5508 5525 5546 5555 5554 5544 5537 5542 5550 5573
5371 5371 5370 5369 5367 5365 5362 5365 5359 5361 5376 5408 5418 5425 5423 5431 5433 5425 5423 5417 5414 5410 5425 5444 5472 5485 5499 5503 5515 5501 5501 5492 5490 5496 5506 5510 5539 5548 5536 5526 5531 5532 5534 5546
5375 5374 5373 5371 5369 5367 5363 5362 5361 5355 5361 5387 5401 5415 5420 5430 5434 5427 5419 5441 5424 5437 5440 5464 5474 5482 5490 5498 5500 5519 5500 5501 5507 5515 5517 5509 5525 5522 5521 5522 5527 5534 5538 5546
5377 5375 5374 5372 5371 5368 5365 5364 5361 5353 5354 5378 5386 5409 5417 5422 5429 5435 5432 5432 5437 5441 5455 5451 5467 5475 5489 5484 5501 5496 5518 5509 5488 5493 5503 5503 5513 5510 5515 5516 5520 5527 5532 5553
5376 5375 5374 5373 5372 5371 5366 5367 5365 5362 5364 5377 5407 5417 5417 5423 5428 5433 5434 5436 5436 5435 5444 5444 5460 5469 5487 5489 5496 5498 5511 5507 5520 5520 5502 5506 5494 5502 5498 5505 5515 5518 5525 5540
5377 5375 5373 5372 5372 5371 5366 5364 5366 5371 5379 5380 5404 5410 5420 5424 5429 5431 5431 5425 5424 5430 5432 5439 5452 5471 5475 5483 5490 5498 5494 5490 5507 5499 5491 5491 5499 5498 5490 5495 5501 5500 5506 5516
5379 5377 5375 5373 5371 5367 5363 5353 5358 5373 5377 5379 5398 5418 5422 5424 5426 5429 5431 5421 5422 5425 5427 5439 5459 5468 5471 5473 5483 5450 5460 5463 5466 5467 5469 5478 5480 5488 5476 5482 5492 5493 5495 5495
5377 5378 5378 5375 5371 5370 5367 5379 5383 5374 5374 5375 5394 5405 5419 5419 5421 5425 5425 5423 5419 5428 5417 5432 5451 5462 5464 5468 5465 5440 5437 5441 5449 5448 5461 5480 5465 5460 5461 5466 5479 5486 5486 5483
5375 5377 5376 5374 5370 5366 5370 5380 5382 5375 5371 5375 5395 5408 5409 5415 5417 5421 5424 5416 5414 5416 5420 5443 5454 5457 5454 5437 5428 5426 5421 5428 5433 5434 5441 5440 5442 5448 5450 5450 5454 5470 5468 5463
5372 5374 5373 5367 5364 5367 5372 5372 5373 5374 5380 5392 5389 5406 5410 5413 5407 5413 5414 5418 5412 5413 5420 5442 5441 5429 5419 5395 5398 5400 5400 5403 5408 5417 5429 5432 5432 5431 5430 5432 5435 5440 5441 5437
5369 5371 5365 5360 5369 5370 5368 5362 5362 5367 5382 5394 5400 5419 5407 5399 5397 5403 5404 5411 5415 5423 5423 5427 5429 5397 5381 5385 5386 5386 5386 5389 5395 5402 5415 5415 5419 5418 5415 5410 5409 5411 5410 5410
5381 5373 5369 5364 5369 5373 5372 5370 5376 5380 5376 5388 5405 5410 5400 5386 5408 5408 5413 5410 5418 5431 5425 5438 5425 5395 5378 5381 5379 5377 5374 5375 5377 5377 5383 5386 5391 5395 5396 5391 5385 5383 5381 5379
5386 5377 5363 5364 5378 5385 5383 5385 5379 5394 5394 5382 5392 5391 5400 5390 5396 5412 5399 5411 5416 5431 5405 5419 5410 5371 5371 5370 5367 5367 5364 5362 5363 5363 5362 5362 5365 5369 5371 5370 5364 5360 5356 5353
5387 5385 5370 5379 5368 5374 5385 5384 5388 5387 5372 5373 5379 5385 5391 5388 5392 5403 5407 5414 5409 5409 5410 5391 5369 5358 5352 5351 5350 5351 5348 5346 5347 5345 5344 5342 5340 5341 5341 5339 5336 5336 5334 5332
5375 5369 5354 5359 5362 5358 5356 5362 5366 5358 5361 5366 5373 5388 5389 5391 5395 5399 5398 5389 5401 5405 5406 5373 5348 5336 5334 5335 5335 5335 5331 5328 5328 5325 5323 5321 5318 5316 5314 5314 5313 5312 5311 5309
5356 5360 5354 5345 5338 5340 5340 5344 5354 5349 5353 5370 5388 5389 5396 5393 5392 5393 5392 5391 5387 5383 5370 5347 5332 5325 5325 5324 5323 5322 5319 5316 5314 5311 5307 5303 5300 5297 5295 5293 5292 5291 5289 5289
5345 5334 5345 5343 5352 5347 5345 5345 5350 5353 5362 5381 5403 5402 5390 5379 5386 5381 5372 5390 5375 5346 5333 5323 5319 5312 5311 5310 5308 5306 5305 5303 5300 5296 5291 5285 5281 5279 5275 5272 5269 5267 5265 5264
5341 5330 5326 5335 5338 5336 5335 5338 5345 5355 5370 5383 5395 5383 5365 5382 5372 5351 5338 5337 5323 5315 5308 5305 5301 5299 5296 5294 5293 5291 5290 5288 5284 5280 5277 5272 5269 5266 5263 5260 5254 5250 5246 5245